00002    4.13  0.11 K07AR 242.48990  310.31268  173.13654   34.84076  0.2307662  0.21357240   2.7718686    MPC 24084  5482  63 1839-1993 0.55 M-c 28  Bowell     0000              (2) Pallas
00003    5.33  0.32 K07AR 166.44326  247.88018  170.10208   12.96672  0.2576105  0.22607182   2.6687328    MPC 24084  4741  65 1839-1993 0.56 M-c 08  Bowell     0000              (3) Juno
00004    3.20  0.32 K07AR  36.07366  149.97862  103.91430    7.13505  0.0893075  0.27156292   2.3616873    MPC 24219  5168  56 1841-1993 0.56 M-c 18  Bowell     0000              (4) Vesta
00005    6.85  0.15 K07AR   1.57107  357.49593  141.67689    5.36885  0.1925010  0.23874497   2.5734352  0 MPO 41498  2178 100 1845-2002 0.56 M-v 38h Goffin     0000              (5) Astraea
00006    5.71  0.24 K07AR  70.56894  239.54944  138.73722   14.75216  0.2019120  0.26090929   2.4255470    MPC 24219  3581  59 1869-1994 0.53 M-c 08  Bowell     0000              (6) Hebe
00007    5.51  0.15 K07AR  96.88676  145.35888  259.72037    5.52743  0.2314470  0.26757634   2.3850871    MPC 24084  3313  57 1850-1993 0.57 M-c 08  Bowell     0000              (7) Iris
00009    6.28  0.17 K07AR 234.14425    6.18143   68.96719    5.57511  0.1217147  0.26730716   2.3866880  0 MPO 25662  2131  96 1822-2001 0.54 M-v 38h Goffin     0000              (9) Metis
00010    5.43  0.15 K07AR 127.11902  313.11831  283.45292    3.84220  0.1177572  0.17736126   3.1373541  0 MPC 35055  2261 104 1849-1999 0.53 M-v 38h Goffin     0000             (10) Hygiea
00011    6.55  0.15 K07AR 281.83286  195.12379  125.62182    4.62476  0.1001795  0.25659201   2.4526786    MPC 24085  2613  61 1850-1993 0.57 M-c 08  Bowell     0000             (11) Parthenope
00015    5.28  0.23 K07AR  40.77241   97.89697  293.26767   11.73823  0.1874178  0.22924719   2.6440319  0 MPO 25662  2071  91 1851-2001 0.52 M-v 38h Goffin     0000             (15) Eunomia
00016    5.90  0.20 K07AR 180.95896  227.74819  150.34552    3.09598  0.1395936  0.19762086   2.9190903  0 MPC 35055  1831  96 1852-1998 0.53 M-v 38h Goffin     0000             (16) Psyche
00017    7.76  0.15 K07AR 317.52208  136.07668  125.60806    5.58762  0.1345796  0.25395079   2.4696553  0 MPC 38747   869  73 1853-1999 0.88 M-v 38h Williams   0000             (17) Thetis
00018    6.51  0.25 K07AR 157.06559  227.93923  150.53225   10.12669  0.2188204  0.28349316   2.2949558  0 MPO 53552  4910  95 1852-2003 0.55 M-v 38h Goffin     0000             (18) Melpomene
00019    7.13  0.10 K07AR 192.77456  181.90688  211.36946    1.57340  0.1590502  0.25831838   2.4417386  0 MPO 53552  2354  94 1852-2003 0.57 M-v 38h Goffin     0000             (19) Fortuna
00020    6.50  0.25 K07AR  91.72147  255.49236  206.50678    0.70697  0.1426740  0.26364621   2.4087313  0 MPO 25662  1670  96 1852-2001 0.54 M-v 38h Goffin     0000             (20) Massalia
00021    7.35  0.11 K07AR 335.00496  249.95730   80.91261    3.06428  0.1630958  0.25929923   2.4355772  0 MPO  2601   814  58 1866-2000 0.67 M-v 38h Williams   0000             (21) Lutetia
00022    6.45  0.21 K07AR  82.83186  355.92220   66.23285   13.71039  0.1027294  0.19872121   2.9083047  0 MPO 53552  1675  90 1852-2003 0.56 M-v 38h Goffin     0000             (22) Kalliope
00024    7.08  0.19 K07AR 328.35947  107.89566   35.99891    0.75953  0.1319198  0.17791088   3.1308893  0 MPO 53552  1795 108 1853-2003 0.56 M-v 38h Goffin     0000             (24) Themis
00039    6.1   0.15 K07AR 122.50833  209.49481  157.15977   10.38425  0.1143770  0.21399007   2.7682605  0 MPC 30777  3843  90 1856-1996 0.52 M-v 38h Goffin     0000             (39) Laetitia
00041    7.12  0.10 K07AR 311.75514   46.29531  178.14812   15.76608  0.2718078  0.21441256   2.7646229  0 MPC 31778   618  67 1856-1997 0.55 M-v 38h Goffin     0000             (41) Daphne
00043    7.93  0.11 K07AR 312.52979   15.96988  264.93367    3.46805  0.1681448  0.30141305   2.2030686  0 MPO 77281  1358  89 1857-2004 0.54 M-v 38h Goffin     0000             (43) Ariadne
00044    7.03  0.46 K07AR  66.58721  342.41033  131.60178    3.70286  0.1483198  0.26129943   2.4231320  0 MPO  3854  1410  81 1857-2000 0.52 M-v 38h Goffin     0000             (44) Nysa
00048    6.90  0.15 K07AR  30.20873  257.46734  183.74318    6.55377  0.0747882  0.17970459   3.1100206  0 MPC 35405   712  88 1857-1999 0.55 M-v 38h Goffin     0000             (48) Doris
00050    9.24  0.15 K07AR 279.46251  199.95892  173.68353    2.83144  0.2842694  0.22806682   2.6531470  0 MPO 77281  1165  62 1857-2004 0.55 M-v 38h Goffin     0000             (50) Virginia
00051    7.35  0.08 K07AR  37.82965    2.94803  176.16542    9.97154  0.0664486  0.27090699   2.3654979  0 MPC 31001  3595  87 1858-1997 0.52 M-v 38h Goffin     0000             (51) Nemausa
00052    6.31  0.18 K07AR 196.73996  343.96510  128.75129    7.47996  0.1051891  0.18087491   3.0965908    MPC 24371  1231  82 1858-1994 0.80 M-c 08  Goffin     0000             (52) Europa
00065    6.62  0.01 K07AR 326.24035  105.70164  155.80235    3.54823  0.1053566  0.15487032   3.4341868  0 MPO 41498  1416 103 1861-2002 0.56 M-v 38h Goffin     0000             (65) Cybele
00067    8.28  0.15 K07AR 260.66417  106.32453  202.71611    6.02763  0.1851309  0.26168545   2.4207485  0 MPC 26379   412  63 1861-1994 1.00 M-v 38d Goffin     0000             (67) Asia
00069    7.05  0.19 K07AR 214.27244  289.92789  185.07233    8.58270  0.1681491  0.19186537   2.9771792  1 MPC 27086   449  69 1861-1993 1.01 M-v 38d Goffin     0000             (69) Hesperia
00079    7.96  0.25 K07AR 226.63681  200.52320  206.76520    4.61796  0.1909437  0.25753884   2.4466634    MPC 22665   844  78 1863-1991 1.05 M-c 08  Goffin     0000             (79) Eurynome
00082    8.40  0.28 K07AR 355.98238  110.36094   25.62940    2.83292  0.2242811  0.21497926   2.7597623  0 MPO 53552  1251  84 1864-2003 0.56 M-v 38h Goffin     0000             (82) Alkmene
00088    7.04  0.14 K07AR 229.65507   36.62162  276.76415    5.21889  0.1650520  0.21415389   2.7668486  0 MPC 31001   998  68 1866-1997 0.54 M-v 38h Goffin     0000             (88) Thisbe
00089    6.60  0.15 K07AR 201.83907   44.94924  311.64941   16.14261  0.1840042  0.24212616   2.5494211  0 MPC 30777   722  59 1866-1995 0.54 M-v 38h Goffin     0000             (89) Julia
00093    7.7   0.15 K07AR 290.78703  275.80953    4.14492    8.55790  0.1417108  0.21568392   2.7537481  0 MPO 53552   720  65 1867-2003 0.56 M-v 38h Goffin     0000             (93) Minerva
00124    8.11  0.19 K07AR 322.41610   63.30547  188.18159    2.95097  0.0766949  0.23112512   2.6296904  0 MPC 25716   418  70 1872-1994 1.02 M-v 38d Goffin     0000            (124) Alkeste
00128    7.49  0.15 K07AR 246.10629  302.24632   76.45890    6.25352  0.1260486  0.21588083   2.7520733  0 MPC 25186   353  64 1872-1994 1.01 M-v 38  Goffin     0000            (128) Nemesis
00130    7.12  0.15 K07AR 279.00291  234.92942  145.48569   22.85427  0.2094976  0.17838572   3.1253308  0 MPC 27886   364  62 1873-1995 0.95 M-v 38d Goffin     0000            (130) Elektra
00135    8.23  0.15 K07AR 324.37444  339.91263  343.85373    2.30473  0.2062584  0.26031204   2.4292556  0 MPO   595   522  71 1874-1999 0.56 M-v 38h Goffin     0000            (135) Hertha
00141    8.2   0.15 K07AR 288.31626   57.88875  318.58701   11.88368  0.2128237  0.22618263   2.6678611  1 MPO  2601   201  33 1877-2000 0.75 M-v 38h Williams   0000            (141) Lumen
00145    8.13  0.15 K07AR 231.05717   44.84166   77.45467   12.63739  0.1449869  0.22564445   2.6721015  0 MPC 35405   212  47 1875-1996 0.55 M-v 38h Goffin     0000            (145) Adeona
00182    9.12  0.15 K07AR 260.63237  310.31635  107.25421    2.00409  0.1850833  0.26230710   2.4169223  1 MPO  2601   234  38 1908-2000 0.82 M-v 38h Williams   0000            (182) Elsa
00196    6.54  0.15 K07AR  58.59699  199.50378   72.55436    7.26117  0.0217203  0.17954133   3.1119056  0 MPO  2601   742  58 1879-2000 0.65 M-v 38h Williams   0000            (196) Philomela
00216    7.30  0.29 K07AR 265.36336  179.67391  215.57234   13.09867  0.2485123  0.21052076   2.7985910  0 MPC 31001  1272  69 1880-1997 0.52 M-v 38h Goffin     0000            (216) Kleopatra
00287    8.30  0.22 K07AR 332.58393  120.38457  142.47512   10.02310  0.0239877  0.27305707   2.3530642  0 MPO 77281  1372  64 1889-2004 0.54 M-v 38h Goffin     0000            (287) Nephthys
00306    8.96  0.15 K07AR 298.60784  167.53649  142.02921    7.26804  0.1506229  0.27217104   2.3581682  0 MPC 27886   485  60 1891-1996 1.04 M-v 38d Goffin     0000            (306) Unitas
00324    6.82  0.09 K07AR 229.02166   43.98318  328.03648   11.10475  0.3379570  0.22425271   2.6831456  0 MPC 31001  1129  62 1892-1997 0.53 M-v 38h Goffin     0000            (324) Bamberga
00346    7.13  0.15 K07AR 236.80208  289.78413   92.15187    8.76219  0.1012897  0.21057916   2.7980736    MPC 22200   246  54 1892-1992 0.94 M-v 38  Goffin     0000            (346) Hermentaria
00354    6.44  0.37 K07AR 168.57552    6.86365  140.40845   18.39259  0.1140706  0.21057865   2.7980781  0 MPC 31001  1700  75 1893-1997 0.55 M-v 38h Goffin     0000            (354) Eleonora
00416    7.89  0.20 K07AR 310.45976  198.93513   58.20225   12.86214  0.2186648  0.21143992   2.7904745  0 MPO 77281   735  52 1896-2005 0.55 M-v 38h Goffin     0000            (416) Vaticana
00451    6.65  0.19 K07AR  46.88176  340.35149   89.39445   15.22186  0.0772119  0.18404482   3.0609317  0 MPO 41498  1284  76 1899-2002 0.56 M-v 38h Goffin     0000            (451) Patientia
00532    5.81  0.26 K07AR 166.97448   76.70407  107.60121   16.31408  0.1784585  0.21375268   2.7703098  0 MPC 31002  2223  69 1904-1997 0.53 M-v 38h Goffin     0000            (532) Herculina
00796    9.12  0.15 K07AR 284.33951  329.43308   33.37704   19.04486  0.3187226  0.23013045   2.6372623  0 MPO 73855   448  31 1914-2004 0.54 M-v 38h Goffin     0000            (796) Sarita